TimeHST,TemperatureF,Dew PointF,Humidity,Sea Level PressureIn,VisibilityMPH,Wind Direction,Wind SpeedMPH,Gust SpeedMPH,PrecipitationIn,Events,Conditions,WindDirDegrees,DateUTC
12:02 AM,71.6,66.2,83,30.02,10.0,SSE,4.6,-,N/A,,Overcast,150,2013-04-29 10:02:00
12:39 AM,69.8,66.2,88,30.02,10.0,Calm,Calm,-,N/A,,Mostly Cloudy,0,2013-04-29 10:39:00
12:50 AM,69.8,66.2,88,30.01,10.0,ESE,3.5,-,N/A,,Mostly Cloudy,120,2013-04-29 10:50:00
12:54 AM,70.0,66.0,87,30.02,10.0,ESE,3.5,-,N/A,,Mostly Cloudy,120,2013-04-29 10:54:00
1:02 AM,69.8,66.2,88,30.01,10.0,SE,3.5,-,N/A,,Mostly Cloudy,130,2013-04-29 11:02:00
1:33 AM,69.8,66.2,88,30.00,10.0,South,3.5,-,0.00,Rain,Light Rain,170,2013-04-29 11:33:00
1:54 AM,70.0,66.9,90,30.00,10.0,Calm,Calm,-,0.00,Rain,Light Rain,0,2013-04-29 11:54:00
2:31 AM,68.0,64.4,88,29.98,10.0,East,5.8,-,0.00,,Scattered Clouds,90,2013-04-29 12:31:00
2:54 AM,68.0,64.9,90,29.99,10.0,ESE,4.6,-,0.00,,Mostly Cloudy,120,2013-04-29 12:54:00
3:11 AM,66.2,64.4,94,29.98,10.0,East,4.6,-,N/A,,Partly Cloudy,90,2013-04-29 13:11:00
3:54 AM,68.0,64.9,90,29.98,10.0,East,5.8,-,N/A,,Mostly Cloudy,90,2013-04-29 13:54:00
4:33 AM,69.8,66.2,88,29.97,10.0,South,13.8,20.7,0.00,,Mostly Cloudy,170,2013-04-29 14:33:00
4:54 AM,68.0,66.9,96,29.99,10.0,SE,6.9,-,0.06,,Mostly Cloudy,140,2013-04-29 14:54:00
5:06 AM,66.2,66.2,100,29.98,10.0,SE,5.8,-,0.00,Rain,Light Rain,140,2013-04-29 15:06:00
5:54 AM,66.0,66.0,100,29.99,10.0,SE,5.8,-,0.00,,Partly Cloudy,130,2013-04-29 15:54:00
6:54 AM,66.9,64.9,93,30.01,10.0,East,3.5,-,N/A,,Partly Cloudy,80,2013-04-29 16:54:00
7:54 AM,72.0,69.1,91,30.01,10.0,East,5.8,-,N/A,,Clear,80,2013-04-29 17:54:00
8:54 AM,73.9,66.0,76,30.02,10.0,SSE,8.1,-,N/A,,Scattered Clouds,150,2013-04-29 18:54:00
9:54 AM,77.0,66.0,69,30.01,10.0,SSE,8.1,-,N/A,,Scattered Clouds,150,2013-04-29 19:54:00
10:54 AM,78.1,66.0,66,30.01,10.0,SSE,15.0,19.6,N/A,,Scattered Clouds,160,2013-04-29 20:54:00
11:54 AM,75.9,66.0,71,30.00,10.0,South,15.0,-,N/A,,Scattered Clouds,180,2013-04-29 21:54:00
12:54 PM,78.1,64.9,64,29.98,10.0,South,16.1,-,N/A,,Scattered Clouds,170,2013-04-29 22:54:00
1:54 PM,79.0,66.9,66,29.96,10.0,South,16.1,21.9,N/A,,Partly Cloudy,170,2013-04-29 23:54:00
2:54 PM,78.1,68.0,71,29.95,10.0,South,17.3,21.9,N/A,,Scattered Clouds,180,2013-04-30 00:54:00
3:54 PM,77.0,66.0,69,29.94,10.0,South,12.7,21.9,N/A,,Scattered Clouds,170,2013-04-30 01:54:00
4:54 PM,77.0,66.9,71,29.94,10.0,South,13.8,-,N/A,,Scattered Clouds,170,2013-04-30 02:54:00
5:54 PM,75.0,68.0,79,29.95,10.0,South,10.4,-,N/A,,Scattered Clouds,170,2013-04-30 03:54:00
6:54 PM,73.0,68.0,84,29.97,10.0,South,9.2,-,N/A,,Mostly Cloudy,170,2013-04-30 04:54:00
7:11 PM,73.4,68.0,83,29.97,10.0,SSE,4.6,-,N/A,,Mostly Cloudy,160,2013-04-30 05:11:00
7:25 PM,73.4,68.0,83,29.97,10.0,South,8.1,-,N/A,,Mostly Cloudy,170,2013-04-30 05:25:00
7:40 PM,73.4,68.0,83,29.98,10.0,SSE,8.1,-,N/A,,Mostly Cloudy,160,2013-04-30 05:40:00
7:54 PM,73.0,68.0,84,29.99,10.0,South,5.8,-,N/A,,Mostly Cloudy,170,2013-04-30 05:54:00
8:54 PM,72.0,68.0,87,30.02,10.0,SSE,5.8,-,N/A,,Overcast,160,2013-04-30 06:54:00
9:23 PM,71.6,68.0,88,30.01,10.0,SSE,4.6,-,N/A,,Scattered Clouds,160,2013-04-30 07:23:00
9:54 PM,72.0,68.0,87,30.02,10.0,Calm,Calm,-,N/A,,Scattered Clouds,0,2013-04-30 07:54:00
10:54 PM,71.1,68.0,90,30.02,10.0,SE,3.5,-,N/A,,Mostly Cloudy,130,2013-04-30 08:54:00
11:54 PM,71.1,68.0,90,30.01,10.0,South,8.1,-,N/A,,Overcast,180,2013-04-30 09:54:00